Location: Aetna Mine
(37.6183°N, 107.6045°W)
Time: 00:36:40
(UTC+00:00)

Cosmos 1898 Rocket - Pass Details

Date: 18 September 2020
Orbit: 753 x 784 km, 74.0° (Epoch: 27 October)

Event Time Altitude Azimuth Distance (km) Brightness Sun altitude
Rises 12:08:06 0° 340° (NNW) 3,237 6.6 -10.1°
Reaches altitude 10° 12:10:29 10° 339° (NNW) 2,312 5.9 -9.7°
Maximum altitude 12:15:43 77° 254° (WSW) 794 3.5 -8.6°
Drops below altitude 10° 12:20:59 10° 169° (SSE) 2,317 6.0 -7.6°
Sets 12:23:22 0° 168° (SSE) 3,244 6.8 -7.1°
